カタログに戻る

STARLINK-11737

運用中通信VLEO
NORAD 64066·PAYLOAD·🇺🇸 United States

打ち上げ May 21, 2025 から Cape Canaveral Space Force Station

Loading…

次のパス (今後24時間)

TLE

最新Source: CelesTrak SupGP

元期: Sep 15, 2026, 02:59 UTC

1 64066C 25107C   26258.12479167 -.00013564  00000+0 -10544-3 0  2582
2 64066  43.0013  36.3923 0001761 270.7010 359.6621 15.70823117    11

AllMySatでSTARLINK-11737をリアルタイム追跡

Download on the App Store